Starlink 35460

operational
NORAD ID: 66328 Int'l Des: 2025-253 Owner: SPXS Country: US Constellation: starlink
NOTLE

关于 Starlink 35460

正在加载描述...

实时位置

正在加载3D地球...

即将过境

高度历史

Altitude vs Time

uPlot chart will show altitude changes over time

两行轨道根数

1 66328U 25253K 25355.55695080 .00039089 00000-0 93774-3 0 9992
2 66328 43.0012 294.7540 0001627 276.6873 83.3798 15.40714796 8283
Epoch: Dec 21, 2025 • Age: 9 hours

当前状态

高度 449.9 km
速度 7.64 km/s
星下点 -26.26°S, 82.22°E
发射日期 Nov 6, 2025
运行时间 0.1 years
类型 internet

技术详情

分类 Payload
质量 575.00 kg
干质量 530.00 kg
总质量 575.00 kg
长度 0.30 m
直径 4.10 m
跨度 29.00 m
形状 Box + pan
制造商 SPXS
平台类型 Starlink V2MO
阶段状态 In Orbit
所有者/国家 SPXS/US

大型星座

Loading constellations...